Regional Weather Roundup
Issued by NWS

Home | Current Version | Previous Version | Graphics & Text | Print | Product List | Glossary On
Versions: 1 2 3 4 5 6 7 8 9 10 11 12 13 14 15 16 17 18 19 20 21 22 23 24 25 26 27 28 29 30 31 32 33 34 35 36 37 38 39 40 41 42 43 44 45 46 47 48 49 50
000
ASUS43 KOAX 201710
RWRNE

WEATHER ROUNDUP FOR NEBRASKA
NATIONAL WEATHER SERVICE OMAHA NE
1200 PM CDT FRI OCT 20 2017

NOTES: SATELLITE DATA IS BEING USED TO AUGMENT CLOUD COVER ABOVE
       12000 FEET.
       "FAIR" INDICATES FEW OR NO CLOUDS BELOW 12,000 FEET WITH NO
       SIGNIFICANT WEATHER AND/OR OBSTRUCTIONS TO VISIBILITY.


NEZ001>004-019>022-054>056-201800-
NEBRASKA PANHANDLE

CITY           SKY/WX    TMP DP  RH WIND       PRES   REMARKS
SCOTTSBLUFF    SUNNY     59  42  53 VRB6      29.63F
ALLIANCE       SUNNY     59  44  57 SE13      29.63F
CHADRON        SUNNY     77  34  21 S12       29.54F
GORDON         FAIR      65  47  50 SW12      29.60F
KIMBALL        SUNNY     69  34  27 W3        29.68F
SIDNEY         SUNNY     71  36  27 NW5       29.65F
$$

NEZ057>060-069>072-079>082-201800-
SOUTHWEST NEBRASKA

CITY           SKY/WX    TMP DP  RH WIND       PRES   REMARKS
NORTH PLATTE   CLOUDY    65  52  62 S15       29.68F
IMPERIAL       CLOUDY    65  52  62 S15       29.66F
LEXINGTON      MOSUNNY   68  54  60 SE17      29.71F
MCCOOK         SUNNY     69  52  54 S21G36    29.68F
OGALLALA       SUNNY     65  52  62 S15       29.65F
$$

NEZ005>010-023>029-035>040-094-201800-
NORTH CENTRAL NEBRASKA

CITY           SKY/WX    TMP DP  RH WIND       PRES   REMARKS
VALENTINE      SUNNY     71  49  45 S22       29.61F
AINSWORTH      MOSUNNY   68  53  59 S20G26    29.65F
BROKEN BOW     MOSUNNY   64  52  64 S17G25    29.71F
O`NEILL        SUNNY     67  54  61 S21G28    29.70F
ORD            PTSUNNY   67  52  58 S21G32    29.72F
THEDFORD       PTSUNNY   65  52  62 S17       29.66F
$$

NEZ041-046>049-061>064-073>077-083>087-201800-
SOUTH CENTRAL NEBRASKA

CITY           SKY/WX    TMP DP  RH WIND       PRES   REMARKS
GRAND ISLAND   SUNNY     69  55  60 S23G30    29.78F
AURORA         SUNNY     70  54  56 S20G26    29.79F
HASTINGS         N/A     69  53  56 S18G26    29.79F
HEBRON         MOSUNNY   69  56  62 S15G31    29.84F
HOLDREGE       SUNNY     65  53  65 S23G31    29.74F
KEARNEY        CLOUDY    69  54  58 S25G31    29.74F
YORK           MOSUNNY   68  55  64 S24G31    29.81F
$$

NEZ011>018-030>034-042>045-201800-
NORTHEAST NEBRASKA

CITY           SKY/WX    TMP DP  RH WIND       PRES   REMARKS
NORFOLK        SUNNY     70  53  54 S20G32    29.75F
ALBION         SUNNY     70  54  58 S23G31    29.76F
BLAIR          CLOUDY    70  56  59 S24G32    29.86F
COLUMBUS       SUNNY     71  55  56 S13       29.80F
TEKAMAH        PTSUNNY   72  54  53 S16G28    29.84F
WAYNE          SUNNY     70  52  53 S18G32    29.78F
$$

NEZ050>053-065>068-078-088>093-201800-
SOUTHEAST NEBRASKA

CITY           SKY/WX    TMP DP  RH WIND       PRES   REMARKS
LINCOLN        MOSUNNY   71  56  58 S20       29.85F
OMAHA EPPLEY   CLOUDY    70  55  59 S17       29.88F
BEATRICE       SUNNY     72  58  62 S17G25    29.87F
FALLS CITY     MOSUNNY   70  56  61 S21G31    29.94F
NEBRASKA CITY  PTSUNNY   72  58  62 S18G24    29.92F
PLATTSMOUTH    PTSUNNY   70  56  60 S18G24    29.90F
$$

NEZ044-045-051>053-067-201800-
OMAHA AREA

CITY           SKY/WX    TMP DP  RH WIND       PRES   REMARKS
OMAHA EPPLEY   CLOUDY    70  55  59 S17       29.88F
BLAIR          CLOUDY    70  56  59 S24G32    29.86F
MILLARD        PTSUNNY   70  57  62 S16G24    29.87F
OFFUTT AFB     MOSUNNY   71  56  58 SE16G24   29.88F
PLATTSMOUTH    PTSUNNY   70  56  60 S18G24    29.90F
WAHOO          FAIR      72  55  55 S25       29.85F
$$




USA.gov is the U.S. government's official web portal to all federal, state and local government web resources and services.